H1 CPF 2 NER 2025 9 8 9 251 01 glonass138 H2 1805301 9138 43508 2025 9 8 0 0 0 2025 9 11 23 45 0 900 1 1 0 0 0 1 H9 10 0 60926 0.00000 0 5596043.371 18701048.322 -16432304.470 10 0 60926 900.00000 0 5605024.728 20585790.680 -13998842.182 10 0 60926 1800.00000 0 5755818.210 22148662.383 -11293766.441 10 0 60926 2700.00000 0 6001277.908 23350541.311 -8369592.811 10 0 60926 3600.00000 0 6288473.676 24164340.947 -5283069.175 10 0 60926 4500.00000 0 6561139.826 24576015.296 -2094076.717 10 0 60926 5400.00000 0 6762271.054 24585035.645 1135528.960 10 0 60926 6300.00000 0 6836755.827 24204319.976 4343114.245 10 0 60926 7200.00000 0 6733935.938 23459618.618 7466478.352 10 0 60926 8100.00000 0 6409984.020 22388382.358 10445055.267 10 0 60926 9000.00000 0 5829998.494 21038160.718 13221083.728 10 0 60926 9900.00000 0 4969727.204 19464597.637 15740722.788 10 0 60926 10800.00000 0 3816846.567 17729108.368 17955091.701 10 0 60926 11700.00000 0 2371741.516 15896334.574 19821214.406 10 0 60926 12600.00000 0 647752.342 14031483.667 21302850.717 10 0 60926 13500.00000 0 -1329123.360 12197663.070 22371198.537 10 0 60926 14400.00000 0 -3521062.869 10453320.188 23005453.841 10 0 60926 15300.00000 0 -5879751.653 8849894.421 23193217.717 10 0 60926 16200.00000 0 -8348164.074 7429778.708 22930742.572 10 0 60926 17100.00000 0 -10862719.095 6224675.269 22223012.424 10 0 60926 18000.00000 0 -13355722.775 5254413.925 21083655.221 10 0 60926 18900.00000 0 -15757997.244 4526282.180 19534688.107 10 0 60926 19800.00000 0 -18001587.623 4034894.978 17606099.671 10 0 60926 20700.00000 0 -20022434.702 3762609.551 15335276.334 10 0 60926 21600.00000 0 -21762902.072 3680467.849 12766283.053 10 0 60926 22500.00000 0 -23174052.074 3749626.779 9949011.563 10 0 60926 23400.00000 0 -24217574.935 3923215.699 6938212.183 10 0 60926 24300.00000 0 -24867289.765 4148542.289 3792427.852 10 0 60926 25200.00000 0 -25110153.887 4369552.865 572851.256 10 0 60926 26100.00000 0 -24946737.608 4529442.084 -2657872.161 10 0 60926 27000.00000 0 -24391144.201 4573300.393 -5836871.208 10 0 60926 27900.00000 0 -23470378.431 4450685.783 -8902281.138 10 0 60926 28800.00000 0 -22223190.457 4118009.538 -11794455.919 10 0 60926 29700.00000 0 -20698444.293 3540633.641 -14457136.022 10 0 60926 30600.00000 0 -18953080.144 2694589.815 -16838548.178 10 0 60926 31500.00000 0 -17049757.109 1567846.482 -18892415.110 10 0 60926 32400.00000 0 -15054276.014 161069.225 -20578855.414 10 0 60926 33300.00000 0 -13032891.074 -1512158.036 -21865156.168 10 0 60926 34200.00000 0 -11049623.451 -3425661.072 -22726403.632 10 0 60926 35100.00000 0 -9163689.116 -5541539.299 -23145960.429 10 0 60926 36000.00000 0 -7427148.215 -7811529.914 -23115780.685 10 0 60926 36900.00000 0 -5882873.428 -10178815.548 -22636557.801 10 0 60926 37800.00000 0 -4562921.043 -12580200.377 -21717702.741 10 0 60926 38700.00000 0 -3487371.389 -14948564.357 -20377153.896 10 0 60926 39600.00000 0 -2663685.491 -17215493.761 -18641022.644 10 0 60926 40500.00000 0 -2086603.123 -19313978.972 -16543081.802 10 0 60926 41400.00000 0 -1738584.853 -21181067.710 -14124106.966 10 0 60926 42300.00000 0 -1590777.951 -22760363.714 -11431083.528 10 0 60926 43200.00000 0 -1604464.217 -24004267.348 -8516294.623 10 0 60926 44100.00000 0 -1732927.701 -24875865.257 -5436307.535 10 0 60926 45000.00000 0 -1923662.783 -25350390.783 -2250878.075 10 0 60926 45900.00000 0 -2120828.891 -25416194.691 978205.956 10 0 60926 46800.00000 0 -2267847.897 -25075186.111 4188319.966 10 0 60926 47700.00000 0 -2310034.247 -24342725.693 7317213.306 10 0 60926 48600.00000 0 -2197146.632 -23246975.738 10304212.245 10 0 60926 49500.00000 0 -1885753.295 -21827734.679 13091392.074 10 0 60926 50400.00000 0 -1341310.924 -20134804.681 15624695.825 10 0 60926 51300.00000 0 -539869.098 -18225960.480 17854978.311 10 0 60926 52200.00000 0 530672.147 -16164603.995 19738955.659 10 0 60926 53100.00000 0 1869805.398 -14017202.209 21240042.368 10 0 60926 54000.00000 0 3464192.591 -11850614.631 22329060.100 10 0 60926 54900.00000 0 5287986.218 -9729421.093 22984804.840 10 0 60926 55800.00000 0 7303683.250 -7713360.605 23194461.576 10 0 60926 56700.00000 0 9463477.902 -5854987.282 22953858.466 10 0 60926 57600.00000 0 11711058.596 -4197640.428 22267555.300 10 0 60926 58500.00000 0 13983775.835 -2773812.906 21148763.991 10 0 60926 59400.00000 0 16215092.080 -1603985.474 19619101.911 10 0 60926 60300.00000 0 18337212.585 -695975.444 17708181.940 10 0 60926 61200.00000 0 20283788.154 -44826.710 15453046.200 10 0 60926 62100.00000 0 21992577.269 366754.520 12897453.564 10 0 60926 63000.00000 0 23407956.247 567436.835 10091033.944 10 0 60926 63900.00000 0 24483171.888 595814.503 7088325.344 10 0 60926 64800.00000 0 25182241.570 498533.736 3947712.140 10 0 60926 65700.00000 0 25481420.273 328074.222 730285.433 10 0 60926 66600.00000 0 25370172.120 140280.657 -2501351.862 10 0 60926 67500.00000 0 24851604.978 -8250.103 -5684311.111 10 0 60926 68400.00000 0 23942349.394 -62814.323 -8756650.458 10 0 60926 69300.00000 0 22671886.850 26834.277 -11658588.597 10 0 60926 70200.00000 0 21081355.745 304111.088 -14333675.239 10 0 60926 71100.00000 0 19221885.658 803519.785 -16729894.677 10 0 60926 72000.00000 0 17152530.475 1548953.201 -18800680.365 10 0 60926 72900.00000 0 14937887.689 2552448.594 -20505820.567 10 0 60926 73800.00000 0 12645504.187 3813450.522 -21812237.521 10 0 60926 74700.00000 0 10343177.514 5318612.947 -22694625.369 10 0 60926 75600.00000 0 8096265.499 7042149.301 -23135935.034 10 0 60926 76500.00000 0 5965116.328 8946716.213 -23127697.425 10 0 60926 77400.00000 0 4002725.704 10984794.125 -22670179.443 10 0 60926 78300.00000 0 2252717.765 13100507.411 -21772370.560 10 0 60926 79200.00000 0 747732.635 15231808.228 -20451800.819 10 0 60926 80100.00000 0 -491713.711 17312933.292 -18734194.294 10 0 60926 81000.00000 0 -1457851.443 19277031.447 -16652965.000 10 0 60926 81900.00000 0 -2155736.560 21058852.836 -14248565.132 10 0 60926 82800.00000 0 -2602786.723 22597387.847 -11567698.298 10 0 60926 83700.00000 0 -2827794.336 23838346.160 -8662412.853 10 0 60926 84600.00000 0 -2869459.767 24736372.741 -5589092.788 10 0 60926 85500.00000 0 -2774507.599 25256908.590 -2407365.591 10 0 60927 0.00000 0 -2595466.149 25377618.772 821051.599 10 0 60927 900.00000 0 -2388204.434 25089328.288 4033547.030 10 0 60927 1800.00000 0 -2209331.188 24396426.735 7167823.163 10 0 60927 2700.00000 0 -2113565.655 23316725.155 10163101.749 10 0 60927 3600.00000 0 -2151191.534 21880770.768 12961297.698 10 0 60927 4500.00000 0 -2365701.588 20130648.226 15508140.911 10 0 60927 5400.00000 0 -2791732.509 18118317.147 17754224.428 10 0 60927 6300.00000 0 -3453377.439 15903554.864 19655958.987 10 0 60927 7200.00000 0 -4362947.751 13551589.635 21176415.913 10 0 60927 8100.00000 0 -5520237.078 11130522.233 22286042.468 10 0 60927 9000.00000 0 -6912319.589 8708642.501 22963236.132 10 0 60927 9900.00000 0 -8513892.431 6351751.758 23194766.878 10 0 60927 10800.00000 0 -10288149.595 4120601.634 22976039.260 10 0 60927 11700.00000 0 -12188152.373 2068555.156 22311188.969 10 0 60927 12600.00000 0 -14158640.798 239566.774 21213011.472 10 0 60927 13500.00000 0 -16138211.928 -1333435.054 19702723.398 10 0 60927 14400.00000 0 -18061775.216 -2629695.750 17809560.371 10 0 60927 15300.00000 0 -19863183.231 -3641265.361 15570218.154 10 0 60927 16200.00000 0 -21477928.185 -4373086.106 13028146.991 10 0 60927 17100.00000 0 -22845791.418 -4842533.422 10232712.063 10 0 60927 18000.00000 0 -23913334.430 -5078430.185 7238235.862 10 0 60927 18900.00000 0 -24636126.269 -5119576.199 4102940.844 10 0 60927 19800.00000 0 -24980612.825 -5012855.688 887813.085 10 0 60927 20700.00000 0 -24925548.451 -4811003.665 -2344590.448 10 0 60927 21600.00000 0 -24462928.768 -4570126.759 -5531367.047 10 0 60927 22500.00000 0 -23598384.608 -4347084.689 -8610500.989 10 0 60927 23400.00000 0 -22351020.001 -4196844.580 -11522078.785 10 0 60927 24300.00000 0 -20752700.766 -4169921.508 -14209462.276 10 0 60927 25200.00000 0 -18846823.651 -4310014.824 -16620395.938 10 0 60927 26100.00000 0 -16686617.958 -4651941.343 -18708026.228 10 0 60927 27000.00000 0 -14333051.282 -5219953.610 -20431812.892 10 0 60927 27900.00000 0 -11852427.480 -6026514.883 -21758314.636 10 0 60927 28800.00000 0 -9313777.648 -7071582.930 -22661834.179 10 0 60927 29700.00000 0 -6786153.205 -8342433.092 -23124910.834 10 0 60927 30600.00000 0 -4335933.793 -9814028.229 -23138651.763 10 0 60927 31500.00000 0 -2024261.731 -11449920.184 -22702896.284 10 0 60927 32400.00000 0 95291.008 -13203645.102 -21826210.779 10 0 60927 33300.00000 0 1978727.333 -15020554.378 -20525714.940 10 0 60927 34200.00000 0 3593219.055 -16840004.801 -18826743.201 10 0 60927 35100.00000 0 4918225.647 -18597816.599 -16762348.193 10 0 60927 36000.00000 0 5946092.913 -20228896.903 -14372655.972 10 0 60927 36900.00000 0 6682108.368 -21669919.248 -11704085.527 10 0 60927 37800.00000 0 7144012.830 -22861947.372 -8808447.596 10 0 60927 38700.00000 0 7360990.323 -23752893.844 -5741940.091 10 0 60927 39600.00000 0 7372180.127 -24299710.847 -2564059.491 10 0 60927 40500.00000 0 7224774.728 -24470221.597 663550.821 10 0 60927 41400.00000 0 6971784.622 -24244515.802 3878293.114 10 0 60927 42300.00000 0 6669564.847 -23615850.721 7017825.665 10 0 60927 43200.00000 0 6375207.927 -22591020.005 10021267.622 10 0 60927 44100.00000 0 6143913.467 -21190174.656 12830375.204 10 0 60927 45000.00000 0 6026445.475 -19446103.221 15390666.646 10 0 60927 45900.00000 0 6066784.732 -17403000.830 17652474.441 10 0 60927 46800.00000 0 6300075.316 -15114777.769 19571904.914 10 0 60927 47700.00000 0 6750952.047 -12642977.411 21111686.946 10 0 60927 48600.00000 0 7432319.730 -10054389.311 22241893.860 10 0 60927 49500.00000 0 8344636.277 -7418455.837 22940524.843 10 0 60927 50400.00000 0 9475730.843 -4804579.234 23193934.819 10 0 60927 51300.00000 0 10801165.889 -2279440.070 22997104.478 10 0 60927 52200.00000 0 12285129.469 95562.425 22353744.961 10 0 60927 53100.00000 0 13881821.900 2266642.431 21276234.674 10 0 60927 54000.00000 0 15537280.234 4189635.727 19785388.731 10 0 60927 54900.00000 0 17191565.486 5831600.891 17910064.604 10 0 60927 55800.00000 0 18781221.977 7171947.115 15686610.654 10 0 60927 56700.00000 0 20241906.398 8203041.914 13158167.309 10 0 60927 57600.00000 0 21511076.517 8930273.601 10373833.664 10 0 60927 58500.00000 0 22530626.430 9371566.323 7387715.142 10 0 60927 59400.00000 0 23249356.993 9556368.553 4257870.518 10 0 60927 60300.00000 0 23625176.658 9524158.322 1045178.879 10 0 60927 61200.00000 0 23626938.957 9322529.121 -2187850.915 10 0 60927 62100.00000 0 23235838.150 9004938.399 -5378304.360 10 0 60927 63000.00000 0 22446303.193 8628215.070 -8464094.225 10 0 60927 63900.00000 0 21266351.497 8249932.806 -11385177.198 10 0 60927 64800.00000 0 19717386.996 7925761.601 -14084729.552 10 0 60927 65700.00000 0 17833450.625 7706910.872 -16510258.148 10 0 60927 66600.00000 0 15659954.615 7637773.344 -18614624.517 10 0 60927 67500.00000 0 13251953.780 7753870.099 -20356961.853 10 0 60927 68400.00000 0 10672026.362 8080184.166 -21703467.138 10 0 60927 69300.00000 0 7987853.254 8629953.253 -22628053.350 10 0 60927 70200.00000 0 5269596.715 9403972.611 -23112849.680 10 0 60927 71100.00000 0 2587187.731 10390437.354 -23148540.800 10 0 60927 72000.00000 0 7634.600 11565330.748 -22734539.369 10 0 60927 72900.00000 0 -2407535.962 12893342.049 -21878989.214 10 0 60927 73800.00000 0 -4604599.793 14329275.328 -20598599.754 10 0 60927 74700.00000 0 -6539623.053 15819890.185 -18918315.351 10 0 60927 75600.00000 0 -8180035.619 17306097.303 -16870826.314 10 0 60927 76500.00000 0 -9505726.254 18725416.977 -14495931.135 10 0 60927 77400.00000 0 -10509615.657 20014597.812 -11839762.338 10 0 60927 78300.00000 0 -11197685.250 21112286.037 -8953890.822 10 0 60927 79200.00000 0 -11588462.191 21961633.764 -5894325.903 10 0 60927 80100.00000 0 -11711983.763 22512736.966 -2720430.322 10 0 60927 81000.00000 0 -11608285.916 22724801.016 506228.896 10 0 60927 81900.00000 0 -11325480.619 22567942.968 3723071.591 10 0 60927 82800.00000 0 -10917503.725 22024554.864 6867714.568 10 0 60927 83700.00000 0 -10441628.812 21090170.678 9879177.355 10 0 60927 84600.00000 0 -9955852.057 19773800.195 12699060.391 10 0 60927 85500.00000 0 -9516258.561 18097715.319 15272673.037 10 0 60928 0.00000 0 -9174481.155 16096697.245 17550089.688 10 0 60928 900.00000 0 -8975358.578 13816773.986 19487115.109 10 0 60928 1800.00000 0 -8954892.113 11313502.688 21046137.721 10 0 60928 2700.00000 0 -9138586.196 8649863.633 22196858.829 10 0 60928 3600.00000 0 -9540243.621 5893855.023 22916880.912 10 0 60928 4500.00000 0 -10161266.370 3115886.348 23192145.057 10 0 60928 5400.00000 0 -10990492.292 386077.652 23017208.860 10 0 60928 6300.00000 0 -12004575.595 -2228424.210 22395359.201 10 0 60928 7200.00000 0 -13168896.407 -4666001.754 21338557.181 10 0 60928 8100.00000 0 -14438962.551 -6872890.013 19867215.620 10 0 60928 9000.00000 0 -15762245.966 -8805170.645 18009812.505 10 0 60928 9900.00000 0 -17080377.733 -10430354.324 15802346.942 10 0 60928 10800.00000 0 -18331610.272 -11728485.762 13287647.226 10 0 60928 11700.00000 0 -19453443.606 -12692725.460 10514543.638 10 0 60928 12600.00000 0 -20385305.155 -13329384.068 7536921.504 10 0 60928 13500.00000 0 -21071169.788 -13657408.365 4412672.662 10 0 60928 14400.00000 0 -21462008.925 -13707340.998 1202565.824 10 0 60928 15300.00000 0 -21517964.358 -13519798.544 -2030941.701 10 0 60928 16200.00000 0 -21210153.905 -13143533.069 -5224927.053 10 0 60928 17100.00000 0 -20522031.499 -12633160.186 -8317234.893 10 0 60928 18000.00000 0 -19450243.261 -12046650.874 -11247695.367 10 0 60928 18900.00000 0 -18004942.516 -11442694.440 -13959302.310 10 0 60928 19800.00000 0 -16209549.834 -10878045.291 -16399327.858 10 0 60928 20700.00000 0 -14099967.706 -10404966.796 -18520351.185 10 0 60928 21600.00000 0 -11723282.631 -10068881.008 -20281181.059 10 0 60928 22500.00000 0 -9136008.867 -9906323.998 -21647654.351 10 0 60928 23400.00000 0 -6401947.343 -9943293.293 -22593295.302 10 0 60928 24300.00000 0 -3589749.077 -10194056.990 -23099823.334 10 0 60928 25200.00000 0 -770284.472 -10660474.452 -23157500.327 10 0 60928 26100.00000 0 1986072.268 -11331856.766 -22765311.370 10 0 60928 27000.00000 0 4612131.290 -12185372.396 -21930976.271 10 0 60928 27900.00000 0 7046436.892 -13186980.607 -20670792.225 10 0 60928 28800.00000 0 9235574.084 -14292853.108 -19009311.181 10 0 60928 29700.00000 0 11136137.326 -15451224.055 -16978858.455 10 0 60928 30600.00000 0 12716281.041 -16604590.641 -14618902.034 10 0 60928 31500.00000 0 13956788.914 -17692171.889 -11975284.818 10 0 60928 32400.00000 0 14851619.037 -18652522.474 -9099334.558 10 0 60928 33300.00000 0 15407903.786 -19426191.901 -6046868.588 10 0 60928 34200.00000 0 15645405.964 -19958317.404 -2877112.517 10 0 60928 35100.00000 0 15595455.380 -20201041.650 348446.290 10 0 60928 36000.00000 0 15299411.712 -20115653.635 3567248.373 10 0 60928 36900.00000 0 14806719.145 -19674362.647 6716871.923 10 0 60928 37800.00000 0 14172635.345 -18861630.526 9736239.358 10 0 60928 38700.00000 0 13455730.707 -17675005.828 12566797.451 10 0 60928 39600.00000 0 12715263.447 -16125424.307 15153648.373 10 0 60928 40500.00000 0 12008541.004 -14236962.324 17446610.041 10 0 60928 41400.00000 0 11388378.738 -12046052.453 19401185.639 10 0 60928 42300.00000 0 10900762.704 -9600192.955 20979423.943 10 0 60928 43200.00000 0 10582814.681 -6956203.582 22150654.228 10 0 60928 44100.00000 0 10461144.970 -4178098.992 22892081.890 10 0 60928 45000.00000 0 10550662.370 -1334666.840 23189233.473 10 0 60928 45900.00000 0 10853891.687 1503150.198 23036242.504 10 0 60928 46800.00000 0 11360828.062 4264960.983 22435970.376 10 0 60928 47700.00000 0 12049335.076 6883609.735 21399959.483 10 0 60928 48600.00000 0 12886070.861 9297726.544 19948218.790 10 0 60928 49500.00000 0 13827904.321 11454039.184 18108845.133 10 0 60928 50400.00000 0 14823762.871 13309350.502 15917486.604 10 0 60928 51300.00000 0 15816834.683 14832099.194 13416657.530 10 0 60928 52200.00000 0 16747033.198 16003439.040 10654917.475 10 0 60928 53100.00000 0 17553620.091 16817791.541 7685929.688 10 0 60928 54000.00000 0 18177875.786 17282849.035 4567417.024 10 0 60928 54900.00000 0 18565704.130 17419028.496 1360035.720 10 0 60928 55800.00000 0 18670060.221 17258399.546 -1873810.597 10 0 60928 56700.00000 0 18453097.651 16843132.622 -5071192.830 10 0 60928 57600.00000 0 17887943.177 16223533.719 -8169889.566 10 0 60928 58500.00000 0 16960022.585 15455749.838 -11109606.351 10 0 60928 59400.00000 0 15667880.669 14599243.272 -13833156.363 10 0 60928 60300.00000 0 14023459.773 13714142.593 -16287578.639 10 0 60928 61200.00000 0 12051824.460 12858583.305 -18425171.458 10 0 60928 62100.00000 0 9790343.315 12086151.237 -20204420.493 10 0 60928 63000.00000 0 7287361.880 11443537.052 -21590803.714 10 0 60928 63900.00000 0 4600422.021 10968500.939 -22557457.710 10 0 60928 64800.00000 0 1794101.971 10688233.060 -23085693.104 10 0 60928 65700.00000 0 -1062433.156 10618178.346 -23165349.764 10 0 60928 66600.00000 0 -3898068.650 10761374.408 -22794985.737 10 0 60928 67500.00000 0 -6642456.115 11108329.664 -21981897.004 10 0 60928 68400.00000 0 -9228695.843 11637446.029 -20741968.329 10 0 60928 69300.00000 0 -11595875.072 12315967.683 -19099358.587 10 0 60928 70200.00000 0 -13691357.755 13101415.482 -17086026.990 10 0 60928 71100.00000 0 -15472731.946 13943446.287 -14741109.496 10 0 60928 72000.00000 0 -16909335.070 14786058.771 -12110157.499 10 0 60928 72900.00000 0 -17983295.054 15570052.791 -9244253.444 10 0 60928 73800.00000 0 -18690045.299 16235638.824 -6199020.312 10 0 60928 74700.00000 0 -19038293.395 16725087.626 -3033544.083 10 0 60928 75600.00000 0 -19049446.226 16985308.591 190770.128 10 0 60928 76500.00000 0 -18756516.704 16970248.202 3411386.190 10 0 60928 77400.00000 0 -18202558.977 16643007.488 6565846.349 10 0 60928 78300.00000 0 -17438698.585 15977589.101 9592978.573 10 0 60928 79200.00000 0 -16521840.841 14960200.129 12434078.610 10 0 60928 80100.00000 0 -15512154.044 13590055.271 15034044.015 10 0 60928 81000.00000 0 -14470433.398 11879645.860 17342438.504 10 0 60928 81900.00000 0 -13455456.292 9854462.356 19314466.392 10 0 60928 82800.00000 0 -12521439.846 7552180.703 20911838.668 10 0 60928 83700.00000 0 -11715707.222 5021345.062 22103514.365 10 0 60928 84600.00000 0 -11076660.377 2319600.295 22866303.254 10 0 60928 85500.00000 0 -10632144.218 -488453.821 23185318.415 10 0 60929 0.00000 0 -10398270.778 -3333698.702 23054269.983 10 0 60929 900.00000 0 -10378752.856 -6145125.193 22475594.049 10 0 60929 1800.00000 0 -10564775.735 -8852542.187 21460414.017 10 0 60929 2700.00000 0 -10935412.503 -11389259.221 20028334.247 10 0 60929 3600.00000 0 -11458566.542 -13694628.537 18207069.187 10 0 60929 4500.00000 0 -12092402.069 -15716342.824 16031914.238 10 0 60929 5400.00000 0 -12787203.101 -17412392.936 13545067.662 10 0 60929 6300.00000 0 -13487582.938 -18752603.987 10794815.865 10 0 60929 7200.00000 0 -14134951.036 -19719685.569 7834597.303 10 0 60929 8100.00000 0 -14670132.896 -20309752.102 4721962.920 10 0 60929 9000.00000 0 -15036031.697 -20532291.599 1517453.415 10 0 60929 9900.00000 0 -15180218.193 -20409584.384 -1716584.410 10 0 60929 10800.00000 0 -15057338.224 -19975596.769 -4917218.406 10 0 60929 11700.00000 0 -14631234.674 -19274397.009 -8022164.283 10 0 60929 12600.00000 0 -13876692.829 -18358161.325 -10971006.142 10 0 60929 13500.00000 0 -12780734.102 -17284855.175 -13706379.570 10 0 60929 14400.00000 0 -11343402.364 -16115688.774 -16175093.412 10 0 60929 15300.00000 0 -9578008.801 -14912455.216 -18329167.707 10 0 60929 16200.00000 0 -7510824.229 -13734864.316 -20126767.335 10 0 60929 17100.00000 0 -5180231.216 -12637985.075 -21533013.211 10 0 60929 18000.00000 0 -2635371.136 -11669904.647 -22520655.608 10 0 60929 18900.00000 0 65657.610 -10869702.170 -23070597.083 10 0 60929 19800.00000 0 2857975.333 -10265822.104 -23172255.644 10 0 60929 20700.00000 0 5672380.425 -9874914.640 -22823761.869 10 0 60929 21600.00000 0 8437990.477 -9701190.875 -22031986.957 10 0 60929 22500.00000 0 11084955.938 -9736318.736 -20812401.805 10 0 60929 23400.00000 0 13547134.271 -9959862.937 -19188770.351 10 0 60929 24300.00000 0 15764614.361 -10340249.466 -17192683.439 10 0 60929 25200.00000 0 17685987.282 -10836213.242 -14862942.354 10 0 60929 26100.00000 0 19270270.069 -11398667.375 -12244803.986 10 0 60929 27000.00000 0 20488403.587 -11972914.932 -9389102.150 10 0 60929 27900.00000 0 21324263.300 -12501109.743 -6351261.903 10 0 60929 28800.00000 0 21775141.926 -12924862.420 -3190225.834 10 0 60929 29700.00000 0 21851684.982 -13187881.639 32687.005 10 0 60929 30600.00000 0 21577282.968 -13238539.256 3254967.553 10 0 60929 31500.00000 0 20986946.551 -13032250.989 6414125.626 10 0 60929 32400.00000 0 20125712.667 -12533572.122 9448897.924 10 0 60929 33300.00000 0 19046648.901 -11717919.584 12300431.899 10 0 60929 34200.00000 0 17808540.250 -10572847.390 14913422.714 10 0 60929 35100.00000 0 16473355.395 -9098821.037 17237181.550 10 0 60929 36000.00000 0 15103598.703 -7309457.337 19226614.986 10 0 60929 36900.00000 0 13759658.761 -5231218.373 20843096.827 10 0 60929 37800.00000 0 12497264.233 -2902570.891 22055215.981 10 0 60929 38700.00000 0 11365153.231 -372644.579 22839386.256 10 0 60929 39600.00000 0 10403053.475 2300556.554 23180306.511 10 0 60929 40500.00000 0 9640057.533 5052316.963 23071262.297 10 0 60929 41400.00000 0 9093461.031 7813658.227 22514262.979 10 0 60929 42300.00000 0 8768112.544 10513973.223 21520011.223 10 0 60929 43200.00000 0 8656302.559 13083737.563 20107704.770 10 0 60929 44100.00000 0 8738196.456 15457186.433 18304673.471 10 0 60929 45000.00000 0 8982793.661 17574846.023 16145857.666 10 0 60929 45900.00000 0 9349372.943 19385814.349 13673137.083 10 0 60929 46800.00000 0 9789363.179 20849696.341 10934522.409 10 0 60929 47700.00000 0 10248560.692 21938112.120 7983224.701 10 0 60929 48600.00000 0 10669599.267 22635715.138 4876620.381 10 0 60929 49500.00000 0 10994567.877 22940677.277 1675132.007 10 0 60929 50400.00000 0 11167664.508 22864620.486 -1558952.968 10 0 60929 51300.00000 0 11137772.656 22431998.021 -4762701.736 10 0 60929 52200.00000 0 10860850.144 21678951.761 -7873769.326 10 0 60929 53100.00000 0 10302027.783 20651694.417 -10831620.346 10 0 60929 54000.00000 0 9437327.761 19404485.723 -13578714.475 10 0 60929 54900.00000 0 8254927.896 17997288.851 -16061631.762 10 0 60929 55800.00000 0 6755917.287 16493206.828 -18232115.151 10 0 60929 56700.00000 0 4954510.647 14955807.731 -20048009.642 10 0 60929 57600.00000 0 2877711.531 13446451.845 -21474079.834 10 0 60929 58500.00000 0 564438.067 12021733.443 -22482690.242 10 0 60929 59400.00000 0 -1935852.681 10731144.568 -23054335.774 10 0 60929 60300.00000 0 -4564984.619 9615058.374 -23178012.795 10 0 60929 61200.00000 0 -7258251.239 8703115.797 -22851424.396 10 0 60929 62100.00000 0 -9946882.222 8013082.091 -22081016.673 10 0 60929 63000.00000 0 -12560685.892 7550219.820 -20881845.979 10 0 60929 63900.00000 0 -15030758.238 7307203.242 -19277280.249 10 0 60929 64800.00000 0 -17292146.589 7264576.278 -17298540.510 10 0 60929 65700.00000 0 -19286358.023 7391733.578 -14984091.583 10 0 60929 66600.00000 0 -20963608.995 7648382.387 -12378893.792 10 0 60929 67500.00000 0 -22284723.492 7986422.851 -9533530.060 10 0 60929 68400.00000 0 -23222601.560 8352166.955 -6503225.118 10 0 60929 69300.00000 0 -23763197.864 8688802.144 -3346775.704 10 0 60929 70200.00000 0 -23905970.330 8938995.442 -125412.300 10 0 60929 71100.00000 0 -23663780.974 9047528.039 3098385.626 10 0 60929 72000.00000 0 -23062253.783 8963848.972 6262097.993 10 0 60929 72900.00000 0 -22138617.189 8644440.014 9304372.762 10 0 60929 73800.00000 0 -20940080.070 8054891.711 12166211.591 10 0 60929 74700.00000 0 -19521809.618 7171602.669 14792109.674 10 0 60929 75600.00000 0 -17944595.884 5983029.895 17131127.968 10 0 60929 76500.00000 0 -16272300.695 4490436.740 19137877.416 10 0 60929 77400.00000 0 -14569197.492 2708105.898 20773396.477 10 0 60929 78300.00000 0 -12897312.985 663007.135 22005905.435 10 0 60929 79200.00000 0 -11313881.276 -1606068.008 22811423.260 10 0 60929 80100.00000 0 -9869016.401 -4049870.134 23174235.296 10 0 60929 81000.00000 0 -8603700.046 -6610499.530 23087202.826 10 0 60929 81900.00000 0 -7548168.164 -9223583.797 22551908.318 10 0 60929 82800.00000 0 -6720763.660 -11820736.575 21578633.120 10 0 60929 83700.00000 0 -6127302.998 -14332196.433 20186167.379 10 0 60929 84600.00000 0 -5760983.226 -16689537.173 18401454.976 10 0 60929 85500.00000 0 -5602833.332 -18828337.363 16259079.462 99